Hourly Data Report for October 27, 2013

All times are specified in Local Standard Time (LST). Add 1 hour to adjust for Daylight Saving Time where and when it is observed.

FREDERICTON
NEW BRUNSWICK

45°52'08.000" N
66°32'14.000" W
20.70 m
8101505
71700
YFC

Download Data

Hourly Data (October 2013)
Hourly Data Report for October 27, 2013
Temp Definition
°C
Dew Point Temp Definition
°C
Rel Hum Definition
%
Wind Dir Definition
10's deg

Wind Spd Definition
km/h
Visibility Definition
km
Stn Press Definition
kPa
Hmdx Definition


Wind Chill Definition


Weather Definition


TIME
00:00 Legend Double Dagger 3.9 3.2 95 21 5 16.1 100.93     LegendNANA
01:00 Legend Double Dagger 3.8 3.4 97 16 13 8.1 100.93     LegendNANA
02:00 Legend Double Dagger 4.1 3.5 96 18 9 4.8 100.88     LegendNANA
03:00 Legend Double Dagger 3.9 3.5 97 17 9 16.1 100.84     LegendNANA
04:00 Legend Double Dagger 3.9 3.5 97 16 11 16.1 100.78     LegendNANA
05:00 Legend Double Dagger 4.0 3.4 96 16 8 16.1 100.72     LegendNANA
06:00 Legend Double Dagger 4.0 3.4 96 15 8 16.1 100.69     LegendNANA
07:00 Legend Double Dagger 3.9 3.3 96 15 9 16.1 100.68     LegendNANA
08:00 Legend Double Dagger 4.0 3.6 97 18 8 16.1 100.71     LegendNANA
09:00 Legend Double Dagger 4.4 4.0 97 18 8 16.1 100.69     LegendNANA
10:00 Legend Double Dagger 5.1 4.4 95 21 5 16.1 100.64     LegendNANA
11:00 Legend Double Dagger 6.2 4.5 89 23 9 16.1 100.62     LegendNANA
12:00 Legend Double Dagger 6.2 4.5 89 26 5 16.1 100.55     LegendNANA
13:00 Legend Double Dagger 7.4 4.6 82 26 11 16.1 100.49     LegendNANA
14:00 Legend Double Dagger 8.0 4.1 76 29 9 16.1 100.47     LegendNANA
15:00 Legend Double Dagger 8.7 4.6 76 26 5 16.1 100.47     LegendNANA
16:00 Legend Double Dagger 8.7 3.8 71 23 13 16.1 100.50     LegendNANA
17:00 Legend Double Dagger 7.8 4.8 81 22 5 16.1 100.56     LegendNANA
18:00 Legend Double Dagger 6.9 5.0 88 23 4 16.1 100.59     LegendNANA
19:00 Legend Double Dagger 5.6 4.6 93 20 8 16.1 100.64     LegendNANA
20:00 Legend Double Dagger 5.0 3.9 93 21 8 16.1 100.69     LegendNANA
21:00 Legend Double Dagger 5.2 3.4 88 23 8 16.1 100.71     LegendNANA
22:00 Legend Double Dagger 5.0 3.2 88 23 8 16.1 100.74     LegendNANA
23:00 Legend Double Dagger 5.2 2.5 82 24 11 16.1 100.79     LegendNANA

Notes on Data Quality.

Legend

  • E = Estimated
  • M = Missing
  • NA = Not Available
  • ‡ = Partner data that is not subject to review by the National Climate Archives
Date modified: